Regional Weather Roundup
Issued by NWS

Home | Current Version | Previous Version | Graphics & Text | Print | Product List | Glossary On
Versions: 1 2 3 4 5 6 7 8 9 10 11 12 13 14 15 16 17 18 19 20 21 22 23 24 25 26 27 28
000
ASUS45 KSLC 152010
RWRUT

UTAH REGIONAL WEATHER ROUNDUP
NATIONAL WEATHER SERVICE SALT LAKE CITY UT
100 PM MST SUN JAN 15 2017

UTZ001>011-023>025-152100-

NORTHERN UTAH

CITY           SKY/WX    TMP DP  RH WIND       PRES   REMARKS
BRIGHAM CITY     N/A     24  22  90 N5        30.15F WCI  19
HILL AFB       PTSUNNY   26  15  63 E9        30.11F WCI  17
LOGAN          SUNNY     14  10  84 CALM      30.17F FOG
OGDEN          SUNNY     27  20  75 S6        30.12F WCI  20
SALT LAKE CITY CLOUDY    31  24  75 VRB5      30.13F WCI  26
TOOELE VALLEY  CLOUDY    30  27  86 N5        30.14F WCI  25
WENDOVER       SUNNY     30  23  74 CALM      30.14F
HEBER CITY     CLOUDY    21  16  79 CALM      30.10F
WEST JORDAN    CLOUDY    29  29 100 NW5       30.12F WCI  24

$$

UTZ011>015-024>027-152100-

CENTRAL/NORTHEAST UTAH

CITY           SKY/WX    TMP DP  RH WIND       PRES   REMARKS
PROVO AIRPORT  CLOUDY    28  21  74 N8        30.13F WCI  20
MOAB/CANYONLAN CLOUDY    38  36  92 W9        29.95F WCI  31
DELTA          CLOUDY    30  27  86 CALM      30.10F
PRICE          CLOUDY    41  28  60 N9        29.94F
RICHFIELD      CLOUDY    32  30  93 N5        30.07F FOG     WCI  27
ROOSEVELT      CLOUDY    32  25  74 CALM      30.08F
VERNAL         CLOUDY    31  24  75 S3        30.05F

$$

UTZ013>016-019>022-027-152100-

SOUTHERN UTAH

CITY           SKY/WX    TMP DP  RH WIND       PRES   REMARKS
BRYCE CANYON   CLOUDY    29  25  85 W9        29.98F WCI  20
CEDAR CITY     CLOUDY    30  26  85 NW13      30.04F WCI  20
MILFORD        CLOUDY    30  25  81 N13       30.08F WCI  20
ST GEORGE      CLEAR     48  30  49 SW5       30.04F
HANKSVILLE     CLOUDY    39  36  87 MISG      30.00F
KANAB          CLOUDY    43  34  70 CALM      30.02F
BLANDING       CLOUDY    40  39  99 S6        29.98F

$$

REGIONAL REPORTS     COLORADO/ARIZONA

CITY           SKY/WX    TMP DP  RH WIND       PRES   REMARKS
CRAIG, CO      CLOUDY    25  20  81 N6        30.01F WCI  18
GRAND JUNCTION SUNNY     44  32  62 VRB3      29.93F
RIFLE, CO      CLOUDY    39  30  70 W5        29.93F
MONTROSE, CO   CLOUDY    38  33  82 E3        29.95F
CORTEZ, CO     LGT RAIN  40  40 100 W9        29.90F FOG     WCI  34
COLORADO CITY  CLOUDY    43  34  70 NW3       30.03F
PAGE, AZ       CLOUDY    45  36  70 NE5       29.95F
GRAND CANYON   CLOUDY    37  36  96 VRB3      29.98F FOG
KINGMAN, AZ      N/A     52  34  50 N5        29.99F
FLAGSTAFF, AZ  CLOUDY    36  34  92 W5        29.96F WCI  32

$$

REGIONAL REPORTS    NEVADA/IDAHO/WYOMING

CITY           SKY/WX    TMP DP  RH WIND       PRES   REMARKS
LAS VEGAS, NV  SUNNY     55  28  35 NE10      30.01F
ELY, NY        CLOUDY    26  22  84 N9        30.09F WCI  17
ELKO, NV       CLOUDY    27  21  78 CALM      30.16F
POCATELLO, ID  CLOUDY    12   7  80 W5        30.20F WCI   4
BURLEY, ID     LGT SNOW  15  10  80 W6        30.22F WCI   6
FORT BRIDGER,  LGT SNOW   9   8  97 CALM      30.09F VSB 3/4
EVANSTON, WY   CLOUDY     8   4  83 CALM      30.04F
ROCK SPRINGS,  LGT SNOW  10   7  87 W7        30.06F VSB 1   WCI  -1

$$




USA.gov is the U.S. government's official web portal to all federal, state and local government web resources and services.